This is the latest recevied weather packets stored in our database for station/object KD7JB. If no packets are shown the sender has not sent any weather packets the latest 10 day(s).
| Time | Temp. | Humidity | Pressure | Rain* | Wind** | Luminosity | Snow |
|---|---|---|---|---|---|---|---|
| 1777848400 | 22.22° C | 31% | 1175.4 hPa | 0 mm | - | 537 W/m² | - |
| 1777848098 | 21.67° C | 32% | 1175.2 hPa | 0 mm | - | 549 W/m² | - |
| 1777847795 | 21.11° C | 33% | 1175.2 hPa | 0 mm | - | 562 W/m² | - |
| 1777847491 | 21.11° C | 34% | 1175.3 hPa | 0 mm | - | 572 W/m² | - |
| 1777847189 | 22.22° C | 33% | 1175.5 hPa | 0 mm | - | 583 W/m² | - |
| 1777846886 | 21.67° C | 35% | 1175.6 hPa | 0 mm | - | 594 W/m² | - |
| 1777846585 | 21.67° C | 32% | 1175.5 hPa | 0 mm | - | 607 W/m² | - |
| 1777846282 | 21.67° C | 33% | 1175.6 hPa | 0 mm | - | 621 W/m² | - |
| 1777845978 | 21.67° C | 34% | 1175.6 hPa | 0 mm | - | 631 W/m² | - |
| 1777845675 | 21.11° C | 33% | 1175.8 hPa | 0 mm | - | 642 W/m² | - |
| 1777845372 | 21.11° C | 35% | 1175.7 hPa | 0 mm | - | 655 W/m² | - |
| 1777845068 | 21.11° C | 33% | 1176 hPa | 0 mm | - | 661 W/m² | - |
| 1777844767 | 21.11° C | 33% | 1175.7 hPa | 0 mm | - | 666 W/m² | - |
| 1777844463 | 21.11° C | 33% | 1176 hPa | 0 mm | - | 673 W/m² | - |
| 1777844162 | 21.67° C | 35% | 1176 hPa | 0 mm | - | 690 W/m² | - |
| 1777843858 | 22.22° C | 35% | 1175.8 hPa | 0 mm | - | 704 W/m² | - |
| 1777843556 | 21.11° C | 36% | 1176.1 hPa | 0 mm | - | 710 W/m² | - |
| 1777843253 | 21.11° C | 36% | 1176 hPa | 0 mm | - | 709 W/m² | - |
| 1777842950 | 21.67° C | 35% | 1176.3 hPa | 0 mm | - | 699 W/m² | - |
| 1777842645 | 20.56° C | 35% | 1176.2 hPa | 0 mm | - | 704 W/m² | - |
| 1777842342 | 21.11° C | 35% | 1176.4 hPa | 0 mm | - | 705 W/m² | - |
| 1777842038 | 20° C | 36% | 1176.4 hPa | 0 mm | - | 714 W/m² | - |
| 1777841735 | 20.56° C | 38% | 1176.3 hPa | 0 mm | - | 720 W/m² | - |
| 1777841431 | 20° C | 38% | 1176.5 hPa | 0 mm | - | 727 W/m² | - |
| 1777841128 | 20.56° C | 37% | 1176.5 hPa | 0 mm | - | 729 W/m² | - |
* Rain latest hour (hover to see other rain measurements)
** Current wind speed in m/s (hover to see current wind gust speed)